{"data":{"norad_id":46036,"epoch":"2026-09-19T18:29:38.715072Z","epoch_age_seconds":81255,"freshness":"FRESH","line1":"1 46036U 20055K   26262.77058698 -.00001256  00000+0 -28712-4 0  9998","line2":"2 46036  53.1620 304.2923 0001165  85.8123 274.3012 15.31697001338625","mean_motion":15.31697001,"eccentricity":0.0001165,"inclination_deg":53.162,"raan_deg":304.2923,"arg_perigee_deg":85.8123,"mean_anomaly_deg":274.3012,"bstar":-2.8712e-5,"rev_number":33862,"period_min":94.013372035061,"perigee_km":469.95103989174,"apogee_km":471.54683031462,"semimajor_km":6848.8859351032,"source":"CELESTRAK","updated_at":"2026-09-20T09:00:38.460680Z"}}